| time (UTC) | temp F | wind direction | speed MPH | gust MPH | rain 1hr in | rain 24hr in | rain mn in | humidity % | barometer mb |
| 20260508025559 | 55 | 118 | 0.0 | 0.0 | 0.00 | 0.00 | 0.00 | 89 | 1013.3 |
| 20260508025056 | 55 | 63 | 0.0 | 0.0 | 0.00 | 0.00 | 0.00 | 89 | 1013.1 |
| 20260508024552 | 54 | 80 | 0.0 | 0.0 | 0.00 | 0.00 | 0.00 | 89 | 1013.0 |
| 20260508024050 | 55 | 84 | 0.0 | 1.0 | 0.00 | 0.00 | 0.00 | 89 | 1013.0 |
| 20260508023546 | 55 | 123 | 0.0 | 1.0 | 0.00 | 0.00 | 0.00 | 89 | 1013.1 |
| 20260508023043 | 55 | 38 | 0.0 | 1.0 | 0.00 | 0.00 | 0.00 | 89 | 1013.1 |
| 20260508022539 | 55 | 87 | 1.0 | 1.0 | 0.00 | 0.00 | 0.00 | 89 | 1012.8 |
| 20260508022036 | 55 | 80 | 0.0 | 0.0 | 0.00 | 0.00 | 0.00 | 89 | 1012.9 |
| 20260508021532 | 55 | 352 | 0.0 | 0.0 | 0.00 | 0.00 | 0.00 | 89 | 1012.7 |
| 20260508021028 | 55 | 31 | 0.0 | 1.0 | 0.00 | 0.00 | 0.00 | 89 | 1012.7 |
| 20260508020526 | 55 | 128 | 2.0 | 3.0 | 0.00 | 0.00 | 0.00 | 89 | 1012.5 |
| 20260508020023 | 55 | 59 | 0.0 | 1.0 | 0.00 | 0.00 | 0.00 | 89 | 1012.6 |
| 20260508015521 | 55 | 68 | 0.0 | 1.0 | 0.00 | 0.00 | 0.00 | 88 | 1012.4 |
| 20260508015018 | 55 | 178 | 1.0 | 2.0 | 0.00 | 0.00 | 0.00 | 89 | 1012.6 |
| 20260508014514 | 55 | 165 | 2.0 | 2.0 | 0.00 | 0.00 | 0.00 | 88 | 1012.6 |
| 20260508014010 | 55 | 34 | 0.0 | 1.0 | 0.00 | 0.00 | 0.00 | 88 | 1012.6 |
| 20260508013501 | 55 | 150 | 1.0 | 1.0 | 0.00 | 0.00 | 0.00 | 88 | 1012.6 |
| 20260508012958 | 55 | 188 | 0.0 | 1.0 | 0.00 | 0.00 | 0.00 | 88 | 1012.8 |
| 20260508012455 | 55 | 130 | 2.0 | 3.0 | 0.00 | 0.00 | 0.00 | 88 | 1012.8 |
| 20260508011953 | 55 | 112 | 3.0 | 3.0 | 0.00 | 0.00 | 0.00 | 88 | 1013.0 |
| 20260508011450 | 55 | 144 | 1.0 | 1.0 | 0.00 | 0.00 | 0.00 | 88 | 1012.7 |
| 20260508010947 | 55 | 76 | 0.0 | 0.0 | 0.00 | 0.00 | 0.00 | 87 | 1013.0 |
| 20260508010444 | 55 | 60 | 0.0 | 1.0 | 0.00 | 0.00 | 0.00 | 87 | 1012.9 |
| 20260508005942 | 55 | 70 | 0.0 | 0.0 | 0.00 | 0.00 | 0.00 | 87 | 1013.2 |
| 20260508005438 | 55 | 79 | 0.0 | 0.0 | 0.00 | 0.00 | 0.00 | 87 | 1013.1 |
| 20260508004934 | 55 | 70 | 0.0 | 0.0 | 0.00 | 0.00 | 0.00 | 87 | 1013.3 |
| 20260508004431 | 56 | 72 | 0.0 | 1.0 | 0.00 | 0.00 | 0.00 | 87 | 1013.3 |
| 20260508003927 | 56 | 91 | 2.0 | 3.0 | 0.00 | 0.00 | 0.00 | 87 | 1013.3 |
| 20260508003424 | 56 | 134 | 3.0 | 3.0 | 0.00 | 0.00 | 0.00 | 86 | 1013.2 |
| 20260508002921 | 56 | 111 | 1.0 | 3.0 | 0.00 | 0.00 | 0.00 | 86 | 1013.5 |
| 20260508002418 | 56 | 78 | 0.0 | 3.0 | 0.00 | 0.00 | 0.00 | 86 | 1013.4 |
| 20260508001914 | 56 | 57 | 0.0 | 0.0 | 0.00 | 0.00 | 0.00 | 86 | 1013.5 |
| 20260508001410 | 57 | 40 | 0.0 | 2.0 | 0.00 | 0.00 | 0.00 | 86 | 1013.3 |
| 20260508000907 | 56 | 30 | 0.0 | 1.0 | 0.00 | 0.00 | 0.00 | 86 | 1013.3 |
| 20260508000405 | 57 | 108 | 1.0 | 2.0 | 0.00 | 0.00 | 0.00 | 86 | 1013.2 |
| 20260507235900 | 56 | 157 | 1.0 | 2.0 | 0.00 | 0.00 | 0.00 | 86 | 1013.4 |
| 20260507235357 | 57 | 119 | 1.0 | 3.0 | 0.00 | 0.00 | 0.00 | 86 | 1013.3 |
| 20260507234854 | 56 | 51 | 1.0 | 2.0 | 0.00 | 0.00 | 0.00 | 86 | 1013.2 |
| 20260507234351 | 56 | 72 | 0.0 | 1.0 | 0.00 | 0.00 | 0.00 | 86 | 1013.4 |
| 20260507233848 | 56 | 114 | 2.0 | 5.0 | 0.00 | 0.00 | 0.00 | 86 | 1013.4 |
| 20260507233345 | 56 | 159 | 3.0 | 6.0 | 0.00 | 0.00 | 0.00 | 86 | 1013.3 |
| 20260507232843 | 57 | 82 | 3.0 | 5.0 | 0.00 | 0.00 | 0.00 | 86 | 1013.3 |
| 20260507232339 | 57 | 55 | 0.0 | 3.0 | 0.00 | 0.00 | 0.00 | 87 | 1013.4 |
| 20260507231837 | 56 | 82 | 0.0 | 0.0 | 0.00 | 0.00 | 0.00 | 87 | 1013.5 |
| 20260507231333 | 56 | 154 | 1.0 | 1.0 | 0.00 | 0.00 | 0.00 | 87 | 1013.5 |
| 20260507230829 | 55 | 128 | 1.0 | 1.0 | 0.00 | 0.00 | 0.00 | 87 | 1013.5 |
| 20260507230322 | 55 | 53 | 0.0 | 0.0 | 0.00 | 0.00 | 0.00 | 87 | 1013.6 |
| 20260507225821 | 55 | 82 | 0.0 | 0.0 | 0.00 | 0.00 | 0.00 | 87 | 1013.6 |
| 20260507225317 | 56 | 117 | 0.0 | 1.0 | 0.00 | 0.00 | 0.00 | 87 | 1013.6 |
| 20260507224813 | 56 | 93 | 2.0 | 2.0 | 0.00 | 0.00 | 0.00 | 87 | 1013.7 |
| 20260507224310 | 56 | 64 | 0.0 | 1.0 | 0.00 | 0.00 | 0.00 | 86 | 1013.8 |
| 20260507223807 | 56 | 19 | 0.0 | 1.0 | 0.00 | 0.00 | 0.00 | 86 | 1014.0 |
| 20260507223303 | 56 | 70 | 0.0 | 3.0 | 0.00 | 0.00 | 0.00 | 86 | 1013.6 |
| 20260507222801 | 56 | 69 | 2.0 | 3.0 | 0.00 | 0.00 | 0.00 | 86 | 1014.1 |
| 20260507222256 | 56 | 27 | 0.0 | 0.0 | 0.00 | 0.00 | 0.00 | 86 | 1014.1 |
| 20260507221754 | 56 | 57 | 0.0 | 1.0 | 0.00 | 0.00 | 0.00 | 86 | 1013.8 |
| 20260507221250 | 56 | 48 | 1.0 | 2.0 | 0.00 | 0.00 | 0.00 | 86 | 1014.1 |
| 20260507220746 | 56 | 31 | 0.0 | 1.0 | 0.00 | 0.00 | 0.00 | 86 | 1014.1 |
| 20260507220245 | 56 | 113 | 0.0 | 2.0 | 0.00 | 0.00 | 0.00 | 86 | 1014.0 |
| 20260507215741 | 56 | 73 | 0.0 | 0.0 | 0.00 | 0.00 | 0.00 | 86 | 1014.1 |
| 20260507215238 | 56 | 58 | 0.0 | 1.0 | 0.00 | 0.00 | 0.00 | 86 | 1014.2 |
| 20260507214735 | 56 | 66 | 0.0 | 0.0 | 0.00 | 0.00 | 0.00 | 86 | 1014.1 |
| 20260507214232 | 56 | 40 | 0.0 | 0.0 | 0.00 | 0.00 | 0.00 | 86 | 1014.1 |
| 20260507213727 | 56 | 43 | 0.0 | 0.0 | 0.00 | 0.00 | 0.00 | 86 | 1014.0 |
| 20260507213224 | 56 | 44 | 0.0 | 0.0 | 0.00 | 0.00 | 0.00 | 86 | 1013.9 |
| 20260507212720 | 56 | 46 | 0.0 | 0.0 | 0.00 | 0.00 | 0.00 | 85 | 1014.0 |
| 20260507212217 | 57 | 55 | 0.0 | 1.0 | 0.00 | 0.00 | 0.00 | 86 | 1013.7 |
| 20260507211714 | 56 | 37 | 0.0 | 0.0 | 0.00 | 0.00 | 0.00 | 85 | 1014.0 |
| 20260507211210 | 57 | 43 | 0.0 | 0.0 | 0.00 | 0.00 | 0.00 | 85 | 1013.6 |
| 20260507210707 | 57 | 56 | 1.0 | 2.0 | 0.00 | 0.00 | 0.00 | 86 | 1013.6 |
| 20260507210204 | 57 | 32 | 0.0 | 0.0 | 0.00 | 0.00 | 0.00 | 85 | 1013.6 |
| 20260507205700 | 57 | 32 | 0.0 | 0.0 | 0.00 | 0.00 | 0.00 | 85 | 1013.7 |
| 20260507205157 | 57 | 32 | 0.0 | 0.0 | 0.00 | 0.00 | 0.00 | 85 | 1013.5 |
| 20260507204653 | 57 | 32 | 0.0 | 0.0 | 0.00 | 0.00 | 0.00 | 85 | 1013.4 |
| 20260507204151 | 58 | 32 | 0.0 | 0.0 | 0.00 | 0.00 | 0.00 | 84 | 1013.4 |
| 20260507203649 | 58 | 32 | 0.0 | 0.0 | 0.00 | 0.00 | 0.00 | 84 | 1013.2 |
| 20260507203146 | 58 | 32 | 0.0 | 0.0 | 0.00 | 0.00 | 0.00 | 84 | 1013.4 |
| 20260507202641 | 58 | 32 | 0.0 | 0.0 | 0.00 | 0.00 | 0.00 | 84 | 1013.2 |
| 20260507202138 | 58 | 32 | 0.0 | 0.0 | 0.00 | 0.00 | 0.00 | 84 | 1013.1 |
| 20260507201633 | 58 | 32 | 0.0 | 0.0 | 0.00 | 0.00 | 0.00 | 84 | 1013.0 |
| 20260507201130 | 59 | 28 | 0.0 | 0.0 | 0.00 | 0.00 | 0.00 | 84 | 1013.0 |
| 20260507200626 | 59 | 28 | 0.0 | 0.0 | 0.00 | 0.00 | 0.00 | 83 | 1013.2 |
| 20260507200122 | 59 | 28 | 0.0 | 0.0 | 0.00 | 0.00 | 0.00 | 83 | 1013.0 |
| 20260507195620 | 59 | 27 | 0.0 | 1.0 | 0.00 | 0.00 | 0.00 | 83 | 1012.8 |
| 20260507195117 | 59 | 28 | 0.0 | 0.0 | 0.00 | 0.00 | 0.00 | 83 | 1013.0 |
| 20260507194613 | 59 | 28 | 0.0 | 0.0 | 0.00 | 0.00 | 0.00 | 82 | 1013.0 |
| 20260507194109 | 59 | 28 | 0.0 | 0.0 | 0.00 | 0.00 | 0.00 | 82 | 1013.0 |
| 20260507193606 | 59 | 28 | 0.0 | 0.0 | 0.00 | 0.00 | 0.00 | 81 | 1012.7 |
| 20260507193103 | 60 | 28 | 0.0 | 0.0 | 0.00 | 0.00 | 0.00 | 81 | 1012.9 |
| 20260507192559 | 60 | 28 | 0.0 | 0.0 | 0.00 | 0.00 | 0.00 | 81 | 1012.9 |
| 20260507192056 | 60 | 28 | 0.0 | 1.0 | 0.00 | 0.00 | 0.00 | 81 | 1013.0 |
| 20260507191551 | 60 | 28 | 0.0 | 0.0 | 0.00 | 0.00 | 0.00 | 81 | 1013.2 |
| 20260507191049 | 61 | 28 | 0.0 | 0.0 | 0.00 | 0.00 | 0.00 | 81 | 1013.2 |
| 20260507190546 | 61 | 28 | 0.0 | 0.0 | 0.00 | 0.00 | 0.00 | 80 | 1013.0 |
| 20260507190045 | 61 | 13 | 0.0 | 1.0 | 0.00 | 0.00 | 0.00 | 80 | 1013.3 |
| 20260507185543 | 61 | 15 | 1.0 | 1.0 | 0.00 | 0.00 | 0.00 | 80 | 1013.1 |
| 20260507185039 | 61 | 14 | 0.0 | 1.0 | 0.00 | 0.00 | 0.00 | 80 | 1013.0 |
| 20260507184537 | 61 | 17 | 0.0 | 1.0 | 0.00 | 0.00 | 0.00 | 79 | 1013.1 |
| 20260507184035 | 62 | 24 | 0.0 | 1.0 | 0.00 | 0.00 | 0.00 | 79 | 1013.1 |
| 20260507183531 | 62 | 26 | 0.0 | 1.0 | 0.00 | 0.00 | 0.00 | 79 | 1013.2 |
| 20260507183028 | 62 | 31 | 0.0 | 1.0 | 0.00 | 0.00 | 0.00 | 79 | 1013.1 |
| 20260507182524 | 62 | 41 | 0.0 | 2.0 | 0.00 | 0.00 | 0.00 | 79 | 1013.1 |
| 20260507182020 | 62 | 5 | 0.0 | 0.0 | 0.00 | 0.00 | 0.00 | 78 | 1013.3 |
| 20260507181517 | 62 | 4 | 1.0 | 1.0 | 0.00 | 0.00 | 0.00 | 78 | 1013.1 |
| 20260507181014 | 62 | 359 | 1.0 | 2.0 | 0.00 | 0.00 | 0.00 | 78 | 1013.0 |
| 20260507180510 | 63 | 341 | 3.0 | 3.0 | 0.00 | 0.00 | 0.00 | 77 | 1012.8 |
| 20260507180007 | 63 | 353 | 2.0 | 5.0 | 0.00 | 0.00 | 0.00 | 77 | 1013.0 |
| 20260507175503 | 63 | 356 | 3.0 | 5.0 | 0.00 | 0.00 | 0.00 | 77 | 1012.7 |
| 20260507175000 | 63 | 324 | 3.0 | 5.0 | 0.00 | 0.00 | 0.00 | 76 | 1012.8 |
| 20260507174458 | 63 | 353 | 2.0 | 3.0 | 0.00 | 0.00 | 0.00 | 76 | 1012.9 |
| 20260507173955 | 63 | 0 | 3.0 | 5.0 | 0.00 | 0.00 | 0.00 | 75 | 1012.9 |
| 20260507173452 | 64 | 358 | 2.0 | 3.0 | 0.00 | 0.00 | 0.00 | 75 | 1012.8 |
| 20260507172949 | 64 | 0 | 3.0 | 3.0 | 0.00 | 0.00 | 0.00 | 74 | 1012.8 |
| 20260507172445 | 64 | 13 | 2.0 | 6.0 | 0.00 | 0.00 | 0.00 | 74 | 1012.6 |
| 20260507171942 | 64 | 341 | 3.0 | 5.0 | 0.00 | 0.00 | 0.00 | 73 | 1012.4 |
| 20260507171437 | 64 | 11 | 2.0 | 6.0 | 0.00 | 0.00 | 0.00 | 73 | 1012.7 |
| 20260507170935 | 65 | 349 | 5.0 | 6.0 | 0.00 | 0.00 | 0.00 | 72 | 1012.5 |
| 20260507170431 | 65 | 351 | 2.0 | 6.0 | 0.00 | 0.00 | 0.00 | 71 | 1012.5 |
| 20260507165928 | 65 | 332 | 6.0 | 6.0 | 0.00 | 0.00 | 0.00 | 70 | 1012.4 |
| 20260507165424 | 65 | 2 | 3.0 | 6.0 | 0.00 | 0.00 | 0.00 | 70 | 1012.5 |
| 20260507164920 | 66 | 7 | 3.0 | 6.0 | 0.00 | 0.00 | 0.00 | 69 | 1012.2 |
| 20260507164417 | 66 | 5 | 4.0 | 6.0 | 0.00 | 0.00 | 0.00 | 68 | 1012.3 |
| 20260507163914 | 66 | 19 | 4.0 | 6.0 | 0.00 | 0.00 | 0.00 | 67 | 1012.3 |
| 20260507163412 | 66 | 36 | 5.0 | 8.0 | 0.00 | 0.00 | 0.00 | 66 | 1012.2 |
| 20260507162908 | 67 | 346 | 6.0 | 7.0 | 0.00 | 0.00 | 0.00 | 64 | 1012.3 |
| 20260507162403 | 67 | 335 | 4.0 | 6.0 | 0.00 | 0.00 | 0.00 | 63 | 1012.2 |
| 20260507161901 | 67 | 32 | 5.0 | 8.0 | 0.00 | 0.00 | 0.00 | 62 | 1012.3 |
| 20260507161357 | 67 | 27 | 3.0 | 11.0 | 0.00 | 0.00 | 0.00 | 61 | 1012.2 |
| 20260507160854 | 68 | 8 | 5.0 | 13.0 | 0.00 | 0.00 | 0.00 | 60 | 1012.2 |
| 20260507160349 | 68 | 359 | 5.0 | 11.0 | 0.00 | 0.00 | 0.00 | 59 | 1012.0 |
| 20260507155846 | 69 | 342 | 3.0 | 7.0 | 0.00 | 0.00 | 0.00 | 57 | 1012.1 |
| 20260507155342 | 69 | 358 | 7.0 | 13.0 | 0.00 | 0.00 | 0.00 | 56 | 1012.0 |
| 20260507154839 | 69 | 63 | 2.0 | 9.0 | 0.00 | 0.00 | 0.00 | 55 | 1012.0 |
| 20260507154336 | 69 | 339 | 7.0 | 15.0 | 0.00 | 0.00 | 0.00 | 55 | 1012.0 |
| 20260507153833 | 70 | 349 | 10.0 | 13.0 | 0.00 | 0.00 | 0.00 | 55 | 1012.0 |
| 20260507153329 | 70 | 326 | 5.0 | 7.0 | 0.00 | 0.00 | 0.00 | 55 | 1012.2 |
| 20260507152826 | 70 | 21 | 4.0 | 13.0 | 0.00 | 0.00 | 0.00 | 54 | 1012.1 |
| 20260507152322 | 70 | 40 | 5.0 | 9.0 | 0.00 | 0.00 | 0.00 | 54 | 1012.3 |
| 20260507151818 | 70 | 10 | 5.0 | 13.0 | 0.00 | 0.00 | 0.00 | 53 | 1012.0 |
| 20260507151315 | 70 | 17 | 7.0 | 16.0 | 0.00 | 0.00 | 0.00 | 55 | 1012.2 |
| 20260507150812 | 71 | 337 | 10.0 | 14.0 | 0.00 | 0.00 | 0.00 | 55 | 1012.3 |
| 20260507150308 | 71 | 6 | 5.0 | 9.0 | 0.00 | 0.00 | 0.00 | 55 | 1012.1 |
| 20260507145805 | 71 | 13 | 6.0 | 15.0 | 0.00 | 0.00 | 0.00 | 55 | 1012.2 |
| 20260507145301 | 71 | 334 | 10.0 | 20.0 | 0.00 | 0.00 | 0.00 | 58 | 1012.2 |
| 20260507144758 | 71 | 39 | 5.0 | 14.0 | 0.00 | 0.00 | 0.00 | 56 | 1012.0 |
| 20260507144256 | 71 | 5 | 8.0 | 16.0 | 0.00 | 0.00 | 0.00 | 56 | 1012.1 |
| 20260507143752 | 71 | 357 | 8.0 | 15.0 | 0.00 | 0.00 | 0.00 | 56 | 1012.1 |
| 20260507143249 | 71 | 338 | 15.0 | 18.0 | 0.00 | 0.00 | 0.00 | 55 | 1011.9 |
| 20260507142745 | 71 | 275 | 9.0 | 14.0 | 0.00 | 0.00 | 0.00 | 55 | 1011.9 |
| 20260507142242 | 72 | 3 | 4.0 | 10.0 | 0.00 | 0.00 | 0.00 | 54 | 1011.9 |
| 20260507141738 | 71 | 57 | 4.0 | 9.0 | 0.00 | 0.00 | 0.00 | 56 | 1012.0 |
| 20260507141236 | 71 | 350 | 10.0 | 16.0 | 0.00 | 0.00 | 0.00 | 55 | 1012.0 |
| 20260507140731 | 71 | 305 | 9.0 | 17.0 | 0.00 | 0.00 | 0.00 | 58 | 1012.1 |
| 20260507140229 | 71 | 343 | 14.0 | 16.0 | 0.00 | 0.00 | 0.00 | 55 | 1012.1 |
| 20260507135726 | 72 | 357 | 9.0 | 16.0 | 0.00 | 0.00 | 0.00 | 56 | 1011.9 |
| 20260507135223 | 73 | 354 | 7.0 | 11.0 | 0.00 | 0.00 | 0.00 | 56 | 1012.0 |
| 20260507134719 | 71 | 340 | 9.0 | 14.0 | 0.00 | 0.00 | 0.00 | 57 | 1012.1 |
| 20260507134216 | 72 | 22 | 7.0 | 20.0 | 0.00 | 0.00 | 0.00 | 56 | 1012.1 |
| 20260507133712 | 73 | 325 | 7.0 | 13.0 | 0.00 | 0.00 | 0.00 | 55 | 1012.0 |
| 20260507133209 | 73 | 30 | 5.0 | 9.0 | 0.00 | 0.00 | 0.00 | 54 | 1012.1 |
| 20260507132706 | 73 | 274 | 11.0 | 16.0 | 0.00 | 0.00 | 0.00 | 56 | 1012.1 |
| 20260507132202 | 72 | 57 | 6.0 | 17.0 | 0.00 | 0.00 | 0.00 | 56 | 1012.1 |
| 20260507131659 | 72 | 304 | 5.0 | 11.0 | 0.00 | 0.00 | 0.00 | 57 | 1012.2 |
| 20260507131157 | 72 | 274 | 10.0 | 18.0 | 0.00 | 0.00 | 0.00 | 56 | 1012.2 |
| 20260507130653 | 72 | 31 | 14.0 | 20.0 | 0.00 | 0.00 | 0.00 | 56 | 1012.2 |
| 20260507130151 | 73 | 317 | 15.0 | 18.0 | 0.00 | 0.00 | 0.00 | 55 | 1011.9 |
| 20260507125650 | 74 | 340 | 6.0 | 10.0 | 0.00 | 0.00 | 0.00 | 55 | 1012.0 |
| 20260507125148 | 73 | 325 | 8.0 | 16.0 | 0.00 | 0.00 | 0.00 | 55 | 1012.1 |
| 20260507124644 | 73 | 345 | 14.0 | 18.0 | 0.00 | 0.00 | 0.00 | 56 | 1012.0 |
| 20260507124142 | 74 | 51 | 5.0 | 13.0 | 0.00 | 0.00 | 0.00 | 55 | 1011.9 |
| 20260507123640 | 74 | 59 | 5.0 | 14.0 | 0.00 | 0.00 | 0.00 | 54 | 1012.0 |
| 20260507123137 | 73 | 359 | 12.0 | 14.0 | 0.00 | 0.00 | 0.00 | 55 | 1012.1 |
| 20260507122632 | 73 | 349 | 7.0 | 17.0 | 0.00 | 0.00 | 0.00 | 56 | 1011.9 |
| 20260507122128 | 72 | 337 | 14.0 | 17.0 | 0.00 | 0.00 | 0.00 | 56 | 1012.0 |
| 20260507121624 | 72 | 302 | 11.0 | 22.0 | 0.00 | 0.00 | 0.00 | 57 | 1012.1 |
| 20260507121120 | 72 | 318 | 15.0 | 18.0 | 0.00 | 0.00 | 0.00 | 56 | 1012.1 |
| 20260507120616 | 73 | 326 | 11.0 | 20.0 | 0.00 | 0.00 | 0.00 | 55 | 1012.3 |
| 20260507120112 | 74 | 356 | 6.0 | 14.0 | 0.00 | 0.00 | 0.00 | 54 | 1012.1 |
| 20260507115609 | 73 | 189 | 7.0 | 14.0 | 0.00 | 0.00 | 0.00 | 55 | 1012.0 |
| 20260507115104 | 73 | 302 | 11.0 | 16.0 | 0.00 | 0.00 | 0.00 | 56 | 1012.2 |
| 20260507114600 | 73 | 354 | 4.0 | 13.0 | 0.00 | 0.00 | 0.00 | 55 | 1012.3 |
| 20260507114058 | 73 | 247 | 15.0 | 18.0 | 0.00 | 0.00 | 0.00 | 56 | 1012.2 |
| 20260507113555 | 73 | 295 | 8.0 | 17.0 | 0.00 | 0.00 | 0.00 | 58 | 1012.4 |
| 20260507113052 | 73 | 354 | 8.0 | 17.0 | 0.00 | 0.00 | 0.00 | 57 | 1012.1 |
| 20260507112550 | 74 | 7 | 9.0 | 16.0 | 0.00 | 0.00 | 0.00 | 56 | 1012.2 |
| 20260507112046 | 73 | 273 | 7.0 | 14.0 | 0.00 | 0.00 | 0.00 | 57 | 1012.3 |
| 20260507111543 | 72 | 344 | 9.0 | 21.0 | 0.00 | 0.00 | 0.00 | 59 | 1012.4 |
| 20260507111040 | 73 | 303 | 7.0 | 17.0 | 0.00 | 0.00 | 0.00 | 58 | 1012.4 |
| 20260507110537 | 73 | 349 | 12.0 | 18.0 | 0.00 | 0.00 | 0.00 | 58 | 1012.4 |
| 20260507110033 | 73 | 323 | 11.0 | 17.0 | 0.00 | 0.00 | 0.00 | 59 | 1012.3 |
| 20260507105530 | 74 | 315 | 7.0 | 17.0 | 0.00 | 0.00 | 0.00 | 56 | 1012.3 |
| 20260507105026 | 73 | 277 | 8.0 | 17.0 | 0.00 | 0.00 | 0.00 | 58 | 1012.4 |
| 20260507104524 | 73 | 316 | 7.0 | 16.0 | 0.00 | 0.00 | 0.00 | 57 | 1012.5 |
| 20260507104020 | 73 | 271 | 11.0 | 18.0 | 0.00 | 0.00 | 0.00 | 58 | 1012.5 |
| 20260507103516 | 73 | 355 | 10.0 | 20.0 | 0.00 | 0.00 | 0.00 | 57 | 1012.4 |
| 20260507103013 | 73 | 349 | 10.0 | 14.0 | 0.00 | 0.00 | 0.00 | 57 | 1012.5 |
| 20260507102510 | 73 | 314 | 8.0 | 15.0 | 0.00 | 0.00 | 0.00 | 57 | 1012.5 |
| 20260507102007 | 73 | 359 | 10.0 | 17.0 | 0.00 | 0.00 | 0.00 | 56 | 1012.2 |
| 20260507101501 | 74 | 327 | 10.0 | 13.0 | 0.00 | 0.00 | 0.00 | 55 | 1012.6 |
| 20260507100958 | 73 | 234 | 8.0 | 14.0 | 0.00 | 0.00 | 0.00 | 56 | 1012.5 |
| 20260507100455 | 73 | 346 | 7.0 | 13.0 | 0.00 | 0.00 | 0.00 | 56 | 1012.5 |
| 20260507095953 | 75 | 351 | 11.0 | 16.0 | 0.00 | 0.00 | 0.00 | 53 | 1012.4 |
| 20260507095451 | 74 | 338 | 3.0 | 9.0 | 0.00 | 0.00 | 0.00 | 45 | 1012.7 |
| 20260507094947 | 74 | 353 | 6.0 | 14.0 | 0.00 | 0.00 | 0.00 | 44 | 1012.7 |
| 20260507094443 | 74 | 263 | 7.0 | 11.0 | 0.00 | 0.00 | 0.00 | 44 | 1012.7 |
| 20260507093941 | 73 | 279 | 5.0 | 15.0 | 0.00 | 0.00 | 0.00 | 46 | 1012.9 |
| 20260507093438 | 74 | 298 | 8.0 | 11.0 | 0.00 | 0.00 | 0.00 | 45 | 1012.8 |
| 20260507092937 | 73 | 277 | 9.0 | 10.0 | 0.00 | 0.00 | 0.00 | 47 | 1013.1 |
| 20260507092432 | 73 | 350 | 8.0 | 13.0 | 0.00 | 0.00 | 0.00 | 46 | 1013.0 |
| 20260507091929 | 73 | 17 | 4.0 | 14.0 | 0.00 | 0.00 | 0.00 | 48 | 1013.2 |
| 20260507091426 | 72 | 350 | 6.0 | 9.0 | 0.00 | 0.00 | 0.00 | 47 | 1013.3 |
| 20260507090916 | 73 | 286 | 8.0 | 11.0 | 0.00 | 0.00 | 0.00 | 47 | 1013.5 |
| 20260507090413 | 73 | 350 | 5.0 | 11.0 | 0.00 | 0.00 | 0.00 | 46 | 1013.5 |
| 20260507085910 | 73 | 60 | 2.0 | 10.0 | 0.00 | 0.00 | 0.00 | 46 | 1013.2 |
| 20260507085407 | 74 | 7 | 5.0 | 8.0 | 0.00 | 0.00 | 0.00 | 44 | 1013.4 |
| 20260507084904 | 74 | 5 | 2.0 | 3.0 | 0.00 | 0.00 | 0.00 | 42 | 1013.5 |
| 20260507084400 | 72 | 219 | 0.0 | 2.0 | 0.00 | 0.00 | 0.00 | 42 | 1013.6 |
| 20260507083858 | 73 | 343 | 4.0 | 11.0 | 0.00 | 0.00 | 0.00 | 43 | 1013.5 |
| 20260507083353 | 72 | 61 | 4.0 | 9.0 | 0.00 | 0.00 | 0.00 | 43 | 1013.5 |
| 20260507082850 | 72 | 37 | 4.0 | 6.0 | 0.00 | 0.00 | 0.00 | 44 | 1013.6 |
| 20260507082346 | 72 | 24 | 3.0 | 6.0 | 0.00 | 0.00 | 0.00 | 44 | 1013.7 |
| 20260507081843 | 71 | 333 | 7.0 | 10.0 | 0.00 | 0.00 | 0.00 | 45 | 1013.7 |
| 20260507081339 | 71 | 358 | 7.0 | 13.0 | 0.00 | 0.00 | 0.00 | 46 | 1013.8 |
| 20260507080836 | 71 | 20 | 0.0 | 3.0 | 0.00 | 0.00 | 0.00 | 48 | 1013.9 |
| 20260507080332 | 71 | 4 | 6.0 | 11.0 | 0.00 | 0.00 | 0.00 | 49 | 1014.0 |
| 20260507075827 | 70 | 53 | 0.0 | 3.0 | 0.00 | 0.00 | 0.00 | 47 | 1014.1 |
| 20260507075324 | 71 | 24 | 1.0 | 7.0 | 0.00 | 0.00 | 0.00 | 48 | 1014.0 |
| 20260507074820 | 69 | 350 | 3.0 | 6.0 | 0.00 | 0.00 | 0.00 | 47 | 1014.0 |
| 20260507074318 | 69 | 343 | 9.0 | 10.0 | 0.00 | 0.00 | 0.00 | 47 | 1013.9 |
| 20260507073815 | 70 | 27 | 4.0 | 9.0 | 0.00 | 0.00 | 0.00 | 46 | 1013.9 |
| 20260507073312 | 69 | 25 | 5.0 | 8.0 | 0.00 | 0.00 | 0.00 | 49 | 1013.7 |
| 20260507072809 | 68 | 30 | 0.0 | 2.0 | 0.00 | 0.00 | 0.00 | 50 | 1013.8 |
| 20260507072308 | 68 | 339 | 8.0 | 9.0 | 0.00 | 0.00 | 0.00 | 51 | 1014.0 |
| 20260507071804 | 67 | 309 | 5.0 | 8.0 | 0.00 | 0.00 | 0.00 | 52 | 1014.0 |
| 20260507071300 | 68 | 0 | 3.0 | 8.0 | 0.00 | 0.00 | 0.00 | 51 | 1014.0 |
| 20260507070757 | 68 | 354 | 4.0 | 5.0 | 0.00 | 0.00 | 0.00 | 50 | 1014.0 |
| 20260507070254 | 68 | 341 | 4.0 | 5.0 | 0.00 | 0.00 | 0.00 | 51 | 1014.1 |
| 20260507065751 | 67 | 41 | 3.0 | 7.0 | 0.00 | 0.00 | 0.00 | 53 | 1014.3 |
| 20260507065247 | 67 | 294 | 7.0 | 9.0 | 0.00 | 0.00 | 0.00 | 53 | 1014.1 |
| 20260507064745 | 66 | 350 | 7.0 | 8.0 | 0.00 | 0.00 | 0.00 | 55 | 1014.4 |
| 20260507064244 | 66 | 53 | 7.0 | 9.0 | 0.00 | 0.00 | 0.00 | 55 | 1014.5 |
| 20260507063741 | 65 | 357 | 2.0 | 5.0 | 0.00 | 0.00 | 0.00 | 57 | 1014.5 |
| 20260507063237 | 66 | 12 | 4.0 | 7.0 | 0.00 | 0.00 | 0.00 | 59 | 1014.2 |
| 20260507062734 | 65 | 325 | 4.0 | 6.0 | 0.00 | 0.00 | 0.00 | 61 | 1014.2 |
| 20260507062231 | 64 | 27 | 5.0 | 9.0 | 0.00 | 0.00 | 0.00 | 61 | 1014.4 |
| 20260507061730 | 65 | 26 | 1.0 | 7.0 | 0.00 | 0.00 | 0.00 | 62 | 1014.4 |
| 20260507061227 | 64 | 30 | 2.0 | 5.0 | 0.00 | 0.00 | 0.00 | 62 | 1014.3 |
| 20260507060725 | 64 | 18 | 5.0 | 8.0 | 0.00 | 0.00 | 0.00 | 64 | 1014.3 |
| 20260507060222 | 64 | 340 | 4.0 | 7.0 | 0.00 | 0.00 | 0.00 | 64 | 1014.2 |
| 20260507055718 | 64 | 46 | 3.0 | 7.0 | 0.00 | 0.00 | 0.00 | 64 | 1014.3 |
| 20260507055213 | 64 | 336 | 4.0 | 7.0 | 0.00 | 0.00 | 0.00 | 65 | 1014.3 |
| 20260507054709 | 64 | 337 | 3.0 | 6.0 | 0.00 | 0.00 | 0.00 | 65 | 1014.4 |
| 20260507054207 | 64 | 342 | 3.0 | 5.0 | 0.00 | 0.00 | 0.00 | 66 | 1014.1 |
| 20260507053704 | 63 | 57 | 5.0 | 8.0 | 0.00 | 0.00 | 0.00 | 66 | 1014.3 |
| 20260507053202 | 63 | 65 | 4.0 | 9.0 | 0.00 | 0.00 | 0.00 | 67 | 1014.4 |
| 20260507052701 | 63 | 43 | 5.0 | 11.0 | 0.00 | 0.00 | 0.00 | 67 | 1014.2 |
| 20260507052156 | 63 | 70 | 1.0 | 7.0 | 0.00 | 0.00 | 0.00 | 68 | 1014.1 |
| 20260507051654 | 62 | 58 | 6.0 | 8.0 | 0.00 | 0.00 | 0.00 | 68 | 1014.1 |
| 20260507051150 | 63 | 1 | 6.0 | 8.0 | 0.00 | 0.00 | 0.00 | 68 | 1014.4 |
| 20260507050647 | 63 | 23 | 3.0 | 7.0 | 0.00 | 0.00 | 0.00 | 68 | 1014.2 |
| 20260507050144 | 63 | 58 | 2.0 | 2.0 | 0.00 | 0.00 | 0.00 | 69 | 1014.4 |
| 20260507045640 | 62 | 65 | 0.0 | 3.0 | 0.00 | 0.00 | 0.00 | 71 | 1014.4 |
| 20260507045137 | 61 | 91 | 1.0 | 2.0 | 0.00 | 0.00 | 0.00 | 72 | 1014.3 |
| 20260507044635 | 60 | 33 | 1.0 | 2.0 | 0.00 | 0.00 | 0.00 | 74 | 1014.1 |
| 20260507044131 | 59 | 40 | 1.0 | 3.0 | 0.00 | 0.00 | 0.00 | 75 | 1014.3 |
| 20260507043627 | 59 | 40 | 0.0 | 1.0 | 0.00 | 0.00 | 0.00 | 77 | 1014.0 |
| 20260507043124 | 58 | 59 | 0.0 | 1.0 | 0.00 | 0.00 | 0.00 | 78 | 1014.3 |
| 20260507042621 | 57 | 66 | 1.0 | 1.0 | 0.00 | 0.00 | 0.00 | 79 | 1014.1 |
| 20260507042116 | 57 | 52 | 1.0 | 2.0 | 0.00 | 0.00 | 0.00 | 81 | 1014.3 |
| 20260507041613 | 56 | 63 | 1.0 | 2.0 | 0.00 | 0.00 | 0.00 | 82 | 1014.3 |
| 20260507041109 | 55 | 123 | 2.0 | 5.0 | 0.00 | 0.00 | 0.00 | 83 | 1014.1 |
| 20260507040606 | 55 | 34 | 2.0 | 2.0 | 0.00 | 0.00 | 0.00 | 83 | 1014.3 |
| 20260507035558 | 54 | 78 | 0.0 | 3.0 | 0.00 | 0.00 | 0.00 | 84 | 1013.9 |
| 20260507035055 | 54 | 78 | 0.0 | 3.0 | 0.00 | 0.00 | 0.00 | 84 | 1014.1 |
| 20260507034552 | 54 | 69 | 2.0 | 2.0 | 0.00 | 0.00 | 0.00 | 85 | 1013.9 |
| 20260507034050 | 53 | 31 | 0.0 | 0.0 | 0.00 | 0.00 | 0.00 | 85 | 1013.8 |
| 20260507033548 | 53 | 67 | 0.0 | 1.0 | 0.00 | 0.00 | 0.00 | 85 | 1014.0 |
| 20260507033044 | 53 | 72 | 0.0 | 1.0 | 0.00 | 0.00 | 0.00 | 85 | 1013.9 |
| 20260507032541 | 53 | 67 | 1.0 | 5.0 | 0.00 | 0.00 | 0.00 | 85 | 1013.8 |
| 20260507032037 | 53 | 140 | 1.0 | 2.0 | 0.00 | 0.00 | 0.00 | 85 | 1013.6 |
| 20260507031534 | 53 | 63 | 0.0 | 3.0 | 0.00 | 0.00 | 0.00 | 85 | 1013.7 |
| 20260507031031 | 53 | 73 | 0.0 | 2.0 | 0.00 | 0.00 | 0.00 | 85 | 1013.7 |
| 20260507030528 | 53 | 72 | 1.0 | 2.0 | 0.00 | 0.00 | 0.00 | 86 | 1013.5 |
| 20260507030026 | 52 | 74 | 1.0 | 1.0 | 0.00 | 0.00 | 0.00 | 86 | 1013.5 |